{"data":{"norad_id":62423,"epoch":"2026-05-24T17:55:29.707968Z","epoch_age_seconds":100220,"freshness":"FRESH","line1":"1 62423U 24249Q   26144.74687162  .00013799  00000+0  50975-3 0  9993","line2":"2 62423  42.9999 244.7173 0001633 295.7423  64.3260 15.27598008 79444","mean_motion":15.27598008,"eccentricity":0.0001633,"inclination_deg":42.9999,"raan_deg":244.7173,"arg_perigee_deg":295.7423,"mean_anomaly_deg":64.326,"bstar":0.00050975,"rev_number":7944,"period_min":94.265637455584,"perigee_km":481.87475125499,"apogee_km":484.11559702307,"semimajor_km":6861.132174139,"source":"CELESTRAK","updated_at":"2026-05-25T13:38:19.654998Z"}}